[[{"header":{"parameterUnit":"m.s-1","parameterCategory":1,"la1":30.2991,"la2":30.254,"lo1":-89.0895,"lo2":-89.0444,"dy":0.0017,"dx":0.0017,"nx":28,"ny":28,"refTime":"2025-08-22T09:00:00:Z","depth":0,"parameterNumber":2,"parameterNumberName":"U-component_of_WINDS"},"data":[0,0,0,0,0,0,0,0,0,0,0,0,0,0,0,0,0,0,0,0,0,0,0,0,0,0,0,0,0,0,0,0,0,0,0,0,0,0,0,0,0,0,0,0,0,0,0,0,0,0,0,0,0,0,0,0,0,0,0.4986,0.4987,0,0.5068,0.5069,0.507,0.5099,0.5099,0.5098,0.5098,0.5186,0.5189,0.5191,0,0,0,0,0,0,0,0,0,0,0,0,0,0.4859,0.4861,0.4986,0.4987,0.4988,0.5068,0.5069,0.507,0.5099,0.5099,0.5098,0.5098,0.5185,0.5189,0.5192,0,0,0,0,0,0,0,0,0,0,0,0,0,0.4925,0.4861,0.4986,0.5012,0.5015,0.5068,0.5069,0.507,0.5099,0.5099,0.5098,0.5098,0.5184,0.5188,0.5192,0.5226,0,0,0.5204,0.5206,0,0,0,0,0,0,0,0,0.4921,0.4929,0.5007,0.501,0.5014,0.5073,0.5056,0.5123,0.5099,0.5067,0.5098,0.5098,0.5149,0.5156,0.5173,0.523,0.5234,0.5205,0.5207,0.5209,0.521,0,0,0,0,0,0,0,0.4916,0.4926,0.5019,0.5008,0.5012,0.5021,0.503,0.5069,0.511,0.507,0.5072,0.5082,0.5151,0.5169,0.5175,0.5235,0.5204,0.5208,0.521,0.5212,0.5325,0.5326,0,0,0,0,0,0,0.4907,0.4922,0.5016,0.5021,0.4965,0.5024,0.5034,0.5054,0.511,0.5118,0.5082,0.5083,0.5162,0.517,0.5178,0.5222,0.5209,0.5212,0.5215,0.5324,0.5325,0.5326,0,0,0,0,0,0,0.4904,0.4915,0.5013,0.4972,0.4985,0.5026,0.505,0.5056,0.5074,0.5118,0.5126,0.5092,0.5162,0.5172,0.5214,0.5225,0.5214,0.5218,0.5324,0.5325,0.5325,0.5308,0,0,0,0,0,0,0.49,0.4914,0.4926,0.4972,0.4987,0.5045,0.505,0.5058,0.508,0.5082,0.513,0.5138,0.5162,0.5207,0.5217,0.523,0.5221,0.5323,0.5324,0.5325,0.5308,0.5309,0.5309,0,0,0,0,0,0.4895,0.4918,0.4926,0.4937,0.5003,0.5046,0.5055,0.5082,0.5081,0.5094,0.5123,0.5136,0.5222,0.5211,0.5223,0.5237,0.5322,0.5324,0.5325,0.5308,0.5308,0.5309,0,0,0,0,0,0,0.4874,0.4925,0.4934,0.4973,0.5005,0.5051,0.5068,0.5081,0.5115,0.5116,0.5149,0.516,0.5198,0.5222,0.5209,0.5273,0.5273,0.5277,0.5256,0.5257,0.5257,0.5251,0.5224,0,0,0,0,0,0.4873,0.4902,0.4946,0.4976,0.4991,0.5027,0.5047,0.5064,0.51,0.5114,0.5145,0.518,0.5215,0.5237,0.5272,0.5312,0.5323,0.5327,0.5327,0.5328,0.5331,0.5354,0.5357,0.5331,0.5331,0.533,0,0,0.4873,0.4904,0.4921,0.4972,0.4999,0.503,0.5038,0.5071,0.5094,0.5119,0.5159,0.5184,0.5225,0.5266,0.5285,0.5287,0.534,0.5329,0.5329,0.5332,0.5356,0.5358,0.536,0.5332,0.5331,0.5331,0,0,0.4888,0.4914,0.4942,0.4969,0.5009,0.5032,0.5039,0.5083,0.51,0.5141,0.516,0.519,0.5249,0.5277,0.53,0.5325,0.5339,0.5336,0.5339,0.5361,0.5363,0.5365,0.5375,0.5378,0.5339,0.5339,0.5339,0,0.4883,0.4929,0.4955,0.4986,0.5009,0.5031,0.5061,0.5086,0.5135,0.5151,0.5151,0.5226,0.5255,0.5303,0.5309,0.5327,0.5336,0.5331,0.536,0.5363,0.5365,0.5375,0.5378,0.5338,0.5338,0.5338,0.5338,0,0.4921,0.4952,0.497,0.5016,0.5041,0.5071,0.5103,0.5125,0.5141,0.5165,0.5207,0.5242,0.5285,0.5297,0.5314,0.5348,0.5347,0.5354,0.5355,0.5366,0.5376,0.538,0.5337,0.5337,0.5338,0.5338,0,0,0.4925,0.4985,0.4991,0.5012,0.5058,0.5084,0.5116,0.5156,0.5174,0.5208,0.5236,0.5285,0.5291,0.5317,0.5336,0.5356,0.5375,0.536,0.5362,0.5362,0.5416,0.5411,0.5415,0.5384,0.5385,0.5386,0.5413,0,0.4946,0.5002,0.5027,0.5072,0.5102,0.5124,0.5152,0.5184,0.5207,0.5237,0.5264,0.5298,0.5303,0.5319,0.5339,0.5368,0.5386,0.5367,0.5412,0.5413,0.5401,0.542,0.5415,0.5439,0.5416,0.5417,0.5418,0,0.4979,0.5011,0.5059,0.5101,0.5115,0.5139,0.5178,0.5206,0.5243,0.5259,0.5287,0.5306,0.5341,0.5339,0.5389,0.5375,0.5395,0.5412,0.5414,0.5419,0.5416,0.5427,0.5447,0.545,0.5424,0.5423,0.5423,0,0.4977,0.5033,0.5069,0.5087,0.5137,0.5154,0.5176,0.5212,0.5235,0.5269,0.5285,0.5323,0.5344,0.5374,0.5404,0.5399,0.5451,0.5451,0.5466,0.5465,0.5476,0.5475,0.55,0.5488,0.5488,0.5488,0.5488,0,0.4999,0.5027,0.5069,0.5091,0.5124,0.5153,0.5185,0.5209,0.5242,0.527,0.5292,0.5318,0.5355,0.5386,0.5409,0.5447,0.5457,0.5471,0.5477,0.547,0.5468,0.5484,0.5483,0.5489,0.5489,0.5489,0.5489,0,0.5003,0.5032,0.5073,0.5117,0.5128,0.5151,0.5189,0.5213,0.5237,0.5272,0.5282,0.5321,0.5359,0.539,0.5441,0.5456,0.5496,0.5503,0.5483,0.5486,0.5499,0.5498,0.5536,0.5543,0.5525,0.5525,0.5526,0,0.5015,0.5038,0.5084,0.5103,0.5125,0.5156,0.5179,0.5209,0.5232,0.5276,0.5294,0.5333,0.5366,0.5426,0.546,0.5498,0.5507,0.5517,0.5513,0.5504,0.5508,0.5506,0.5509,0.5518,0.5518,0.5518,0.5518,0,0.5034,0.5047,0.5078,0.5115,0.5141,0.5172,0.5203,0.5218,0.5254,0.5279,0.5317,0.5343,0.5394,0.5433,0.5475,0.5499,0.5515,0.5519,0.5524,0.5517,0.5505,0.5512,0.5484,0.5518,0.5518,0.5518,0.5518,0.5518,0.5043,0.5064,0.51,0.5134,0.516,0.5189,0.5213,0.524,0.5272,0.5314,0.533,0.537,0.5407,0.5465,0.549,0.5522,0.5524,0.5532,0.5534,0.5536,0.5535,0.5499,0.553,0.553,0.553,0.553,0.553,0,0.5063,0.5087,0.5118,0.5161,0.5188,0.5199,0.5234,0.5257,0.5291,0.5323,0.5355,0.54,0.5438,0.5474,0.5514,0.5533,0.5541,0.5542,0.5542,0.5547,0.553,0.5522,0.5535,0.5535,0.5535,0.5535,0.5535,0.5535,0.5077,0.5113,0.5131,0.518,0.5205,0.5242,0.5262,0.5289,0.5315,0.5363,0.5394,0.5417,0.5451,0.5494,0.553,0.554,0.5554,0.5553,0.5565,0.5549,0.5548,0.5547,0.5539,0.5556,0.5556,0.5579,0.5579,0.558]},{"header":{"parameterUnit":"m.s-1","parameterCategory":1,"la1":30.2991,"la2":30.254,"lo1":-89.0895,"lo2":-89.0444,"dy":0.0017,"dx":0.0017,"nx":28,"ny":28,"refTime":"2025-08-22T09:00:00:Z","depth":0,"parameterNumber":3,"parameterNumberName":"V-component_of_WINDS"},"data":[0,0,0,0,0,0,0,0,0,0,0,0,0,0,0,0,0,0,0,0,0,0,0,0,0,0,0,0,0,0,0,0,0,0,0,0,0,0,0,0,0,0,0,0,0,0,0,0,0,0,0,0,0,0,0,0,0,0,-0.0601,-0.06,0,-0.0581,-0.0581,-0.0581,-0.0585,-0.0586,-0.0586,-0.0587,-0.0566,-0.0565,-0.0564,0,0,0,0,0,0,0,0,0,0,0,0,0,-0.0643,-0.0642,-0.0601,-0.06,-0.06,-0.0581,-0.0581,-0.0581,-0.0585,-0.0586,-0.0586,-0.0587,-0.0566,-0.0565,-0.0564,0,0,0,0,0,0,0,0,0,0,0,0,0,-0.0624,-0.0642,-0.0601,-0.06,-0.06,-0.0581,-0.0581,-0.0581,-0.0585,-0.0586,-0.0586,-0.0587,-0.0567,-0.0565,-0.0564,-0.0544,0,0,-0.056,-0.0559,0,0,0,0,0,0,0,0,-0.0625,-0.0623,-0.0601,-0.06,-0.06,-0.0586,-0.0588,-0.0568,-0.0585,-0.0591,-0.0587,-0.0587,-0.0572,-0.057,-0.0566,-0.0543,-0.0542,-0.056,-0.0559,-0.0558,-0.0558,0,0,0,0,0,0,0,-0.0627,-0.0624,-0.0593,-0.06,-0.06,-0.0602,-0.0599,-0.0585,-0.0579,-0.059,-0.0591,-0.0588,-0.0572,-0.0567,-0.0565,-0.0542,-0.056,-0.0559,-0.0558,-0.0557,-0.0507,-0.0506,0,0,0,0,0,0,-0.0628,-0.0625,-0.0594,-0.0592,-0.0614,-0.06,-0.0598,-0.059,-0.0579,-0.0578,-0.0588,-0.0589,-0.0569,-0.0567,-0.0564,-0.0543,-0.0558,-0.0557,-0.0556,-0.0507,-0.0506,-0.0506,0,0,0,0,0,0,-0.0629,-0.0625,-0.0594,-0.0609,-0.0605,-0.0599,-0.059,-0.0589,-0.0584,-0.0577,-0.0576,-0.0584,-0.0569,-0.0566,-0.055,-0.0542,-0.0556,-0.0555,-0.0508,-0.0507,-0.0506,-0.0498,0,0,0,0,0,0,-0.063,-0.0626,-0.0617,-0.0608,-0.0604,-0.058,-0.059,-0.0589,-0.0582,-0.0583,-0.0572,-0.0571,-0.0569,-0.0552,-0.0549,-0.0541,-0.0554,-0.0508,-0.0507,-0.0506,-0.0499,-0.0497,-0.0496,0,0,0,0,0,-0.0632,-0.0615,-0.0617,-0.0613,-0.0594,-0.0579,-0.0577,-0.0575,-0.0581,-0.0574,-0.057,-0.0572,-0.0544,-0.055,-0.0547,-0.0538,-0.0509,-0.0508,-0.0506,-0.05,-0.0498,-0.0496,0,0,0,0,0,0,-0.0622,-0.0614,-0.0616,-0.0596,-0.0588,-0.058,-0.057,-0.0572,-0.0563,-0.0564,-0.0562,-0.056,-0.0544,-0.0539,-0.0547,-0.052,-0.0527,-0.0525,-0.0524,-0.0521,-0.052,-0.0521,-0.0553,0,0,0,0,0,-0.0618,-0.0607,-0.06,-0.0583,-0.0579,-0.0576,-0.0569,-0.0569,-0.0561,-0.0558,-0.0552,-0.0545,-0.0535,-0.0528,-0.0518,-0.0499,-0.0498,-0.0491,-0.049,-0.0488,-0.0487,-0.0479,-0.0477,-0.0502,-0.0502,-0.0502,0,0,-0.0609,-0.0603,-0.0595,-0.0581,-0.0575,-0.0565,-0.0573,-0.056,-0.0553,-0.0556,-0.0541,-0.0537,-0.0528,-0.0512,-0.0504,-0.0507,-0.048,-0.0487,-0.0486,-0.0485,-0.0478,-0.0475,-0.0473,-0.0501,-0.0501,-0.0501,0,0,-0.0587,-0.058,-0.0567,-0.0562,-0.0554,-0.0552,-0.0549,-0.0541,-0.0539,-0.0524,-0.0527,-0.0518,-0.0499,-0.0494,-0.0489,-0.0469,-0.0471,-0.0466,-0.0457,-0.0449,-0.0447,-0.0446,-0.044,-0.0438,-0.0464,-0.0464,-0.0464,0,-0.0576,-0.056,-0.0559,-0.0548,-0.0543,-0.0546,-0.0534,-0.0528,-0.0517,-0.0514,-0.0518,-0.0497,-0.0491,-0.0475,-0.047,-0.0465,-0.0463,-0.0467,-0.0448,-0.0446,-0.0444,-0.0439,-0.0437,-0.0464,-0.0464,-0.0464,-0.0464,0,-0.0549,-0.0538,-0.0528,-0.0519,-0.0512,-0.05,-0.0499,-0.0492,-0.0493,-0.0491,-0.0478,-0.0471,-0.0462,-0.0458,-0.0457,-0.0442,-0.0444,-0.0448,-0.0455,-0.0441,-0.0437,-0.0434,-0.0463,-0.0463,-0.0463,-0.0463,0,0,-0.0518,-0.0511,-0.0508,-0.0505,-0.0498,-0.0489,-0.0478,-0.047,-0.0465,-0.0458,-0.045,-0.0436,-0.044,-0.0435,-0.0434,-0.0428,-0.0415,-0.0433,-0.0433,-0.0431,-0.04,-0.0398,-0.0395,-0.0417,-0.0416,-0.0416,-0.0401,0,-0.0497,-0.0478,-0.0479,-0.0461,-0.0453,-0.0457,-0.0448,-0.0443,-0.0442,-0.0435,-0.0433,-0.0424,-0.0429,-0.0426,-0.042,-0.0418,-0.0409,-0.0419,-0.041,-0.041,-0.0413,-0.0392,-0.039,-0.0376,-0.0399,-0.0399,-0.0398,0,-0.0469,-0.0463,-0.0445,-0.0442,-0.0438,-0.043,-0.0424,-0.0416,-0.0412,-0.0411,-0.0407,-0.0408,-0.0399,-0.0406,-0.0394,-0.0401,-0.0397,-0.0396,-0.0396,-0.0395,-0.0403,-0.0392,-0.0371,-0.0369,-0.0395,-0.0395,-0.0395,0,-0.0452,-0.0439,-0.0427,-0.0424,-0.0419,-0.0414,-0.0412,-0.0408,-0.0404,-0.0398,-0.0396,-0.0389,-0.0385,-0.038,-0.0381,-0.0386,-0.0369,-0.0376,-0.0369,-0.0369,-0.0365,-0.0365,-0.0344,-0.0361,-0.0362,-0.0362,-0.0362,0,-0.0428,-0.0418,-0.0419,-0.0412,-0.0401,-0.0403,-0.0392,-0.039,-0.0387,-0.0381,-0.0384,-0.0378,-0.0378,-0.0373,-0.0373,-0.0364,-0.0361,-0.0362,-0.0362,-0.0362,-0.0362,-0.036,-0.0361,-0.0361,-0.0361,-0.0361,-0.0361,0,-0.0407,-0.0407,-0.0395,-0.0393,-0.0392,-0.0384,-0.0382,-0.0376,-0.0376,-0.0368,-0.0366,-0.0366,-0.0359,-0.0359,-0.0351,-0.0352,-0.0341,-0.0342,-0.0343,-0.0343,-0.0337,-0.0338,-0.0313,-0.0311,-0.033,-0.033,-0.0329,0,-0.0392,-0.0384,-0.0382,-0.0378,-0.0376,-0.037,-0.0366,-0.0368,-0.0364,-0.036,-0.0355,-0.0349,-0.0344,-0.0334,-0.0333,-0.0328,-0.0329,-0.0321,-0.0328,-0.0329,-0.0331,-0.0332,-0.0332,-0.032,-0.032,-0.0319,-0.0319,0,-0.0367,-0.0369,-0.0363,-0.0359,-0.0355,-0.0351,-0.0348,-0.0344,-0.0346,-0.0342,-0.0336,-0.0333,-0.0326,-0.032,-0.0316,-0.0314,-0.0318,-0.0317,-0.0316,-0.0316,-0.0317,-0.0318,-0.034,-0.0318,-0.0318,-0.0318,-0.0318,-0.0318,-0.035,-0.0344,-0.0342,-0.0337,-0.0335,-0.0333,-0.0328,-0.0328,-0.0323,-0.0318,-0.032,-0.0313,-0.0311,-0.0306,-0.0304,-0.03,-0.0302,-0.03,-0.0299,-0.0299,-0.0299,-0.0317,-0.0299,-0.0299,-0.0299,-0.0299,-0.0299,0,-0.0326,-0.0326,-0.0321,-0.0318,-0.0314,-0.0318,-0.0315,-0.0312,-0.0307,-0.0305,-0.0301,-0.0295,-0.0291,-0.029,-0.0286,-0.0283,-0.0285,-0.0282,-0.0283,-0.0283,-0.0295,-0.0298,-0.0281,-0.0281,-0.0281,-0.0281,-0.0281,-0.0281,-0.0314,-0.0306,-0.0307,-0.0298,-0.0298,-0.0293,-0.0291,-0.0289,-0.0288,-0.0282,-0.0278,-0.0279,-0.0278,-0.0274,-0.0271,-0.0271,-0.027,-0.0267,-0.0268,-0.028,-0.0281,-0.0283,-0.0285,-0.0266,-0.0266,-0.0255,-0.0255,-0.0255]}]]